Regional Weather Roundup
Issued by NWS Portland, ME

Current Version | Previous Version | Text Only | Print | Product List | Glossary Off
Versions: 1 2 3 4 5 6 7 8 9 10 11 12 13 14 15 16 17 18 19 20 21 22 23 24 25 26 27 28 29 30 31 32 33 34 35 36 37 38 39 40 41 42 43 44 45 46 47 48 49 50
000 ASUS41 KGYX 240910 RWRGYX WEATHER ROUNDUP FOR MAINE AND NEW HAMPSHIRE NATIONAL WEATHER SERVICE GRAY ME 500 AM EDT MON APR 24 2017 MEZ002-005-006-010-012-015-018-020-021-024-026-027-029-241000- MAINE CITY SKY/WX TMP DP RH WIND PRES REMARKS PORTLAND PTCLDY 35 33 92 VRB6 30.07R SANFORD CLEAR 34 34 100 NE3 30.08R BAR HARBOR CLEAR 37 36 96 CALM 30.08R WISCASSET CLEAR 34 32 92 CALM 30.08R ROCKLAND CLEAR 38 37 97 CALM 30.08R FRYEBURG PTCLDY 30 30 100 CALM 30.07R FOG LEWISTONAUBURN CLEAR 32 31 96 W3 30.07R AUGUSTA CLEAR 36 34 92 NW3 30.08R WATERVILLE PTCLDY 34 34 100 CALM 30.06R BANGOR CLEAR 35 34 96 S3 30.08R GREENVILLE N/A 36 33 89 NW12G21 30.01R MILLINOCKET CLEAR 36 36 100 VRB3 30.06R HOULTON CLEAR 33 32 96 CALM 30.02R PRESQUE ISLE CLOUDY 34 27 75 N13 30.08R FRENCHVILLE CLEAR 27 19 72 MISG 30.04R CARIBOU PTCLDY 32 26 78 N12 30.05R $$ NHZ002-005-008-009-011-012-014-241000- NEW HAMPSHIRE CITY SKY/WX TMP DP RH WIND PRES REMARKS PORTSMOUTH CLEAR 44 39 81 W6 30.07R ROCHESTER CLEAR 37 34 89 NW5 30.07R NASHUA CLEAR 41 39 93 CALM 30.09R MANCHESTER CLEAR 46 37 71 NW3 30.07R CONCORD CLEAR 37 34 89 CALM 30.09R LACONIA CLEAR 41 35 79 W3 30.08R PLYMOUTH FAIR 32 32 100 CALM 30.09R FOG BERLIN CLEAR 31 28 89 CALM 30.08R WHITEFIELD CLEAR 30 26 85 CALM 30.09R JAFFREY CLEAR 38 38 100 S5 30.10R KEENE CLEAR 34 34 100 CALM 30.12R FOG LEBANON CLEAR 34 32 92 CALM 30.09R MT WASHINGTON PTCLDY 27 25 93 W48 N/A WCI 7 $$ VTZ005-007-008-241000- VERMONT CITY SKY/WX TMP DP RH WIND PRES REMARKS ST JOHNSBURY N/A 36 34 92 MISG 30.09R MONTPELIER CLEAR 39 34 82 N3 30.13R BURLINGTON CLEAR 44 36 73 N10 30.14R $$ MAZ007-012-024-CTZ003-RIZ002-NYZ038-NYZ072-241000- SOUTHERN NEW ENGLAND AND NY CITY SKY/WX TMP DP RH WIND PRES REMARKS BOSTON PTCLDY 45 38 76 SW10 30.10S WORCESTER CLEAR 43 35 73 W13 30.09S NANTUCKET CLEAR 44 41 89 SW7 30.15S PROVIDENCE PTCLDY 40 39 97 S6 30.14R HARTFORD PTCLDY 42 39 89 S7 30.12R ALBANY CLEAR 41 35 79 CALM 30.10R NEW YORK CITY MOCLDY 49 43 80 E3 30.12R $$ ANZ081-ANZ082-ANZ150-NHZ014-MEZ023>029-241000- COASTAL MARINE OBSERVATIONS STATION/POSITION TIME TEMP WIND PRES WAVE AIR SEA DIR/SP/G HT/PER (UTC) (F) (DEG/KT/KT) (MB) (FT/S) MOUNT DESERT ROC 0900 42 1018.9R MATINICUS ROCK 0800 43 230/ 19/ 21 1017.1R ISLE OF SHOALS 0800 46 250/ 5/ 5 1018.1R JEFFREYS LEDGE 0806 44 N/A 4/12 CASHES LEDGE BUO 0850 43 42 1018.5R 5/ 5 GEORGES BANK BUO 0850 42 41 1021.9R 4/10 $$ .............KEY.............. WCI - WIND CHILL TC - TEMPERATURE IN CELSIUS VSB - VISIBILITY IN MILES HX - HEAT INDEX FAIR- INDICATES FEW OR NO CLOUDS BELOW 12,000 FT, WITH NO SIGNIFICANT WEATHER AND/OR OBSTRUCTIONS TO VISIBILITY.

USA.gov is the U.S. government's official web portal to all federal, state and local government web resources and services.